Zurück zum Katalog

SL-6 R/B(2)

AktivHEO
NORAD 13075·ROCKET BODY·🇷🇺 Russia

Gestartet Feb 26, 1982 von Plesetsk Cosmodrome

Loading…

Nächste Überflüge (nächste 24 Stunden)

TLE

AktuellSource: Space-Track

Epoche: Sep 11, 2026, 13:59 UTC

1 13075U 82015D   26254.58324614  .00000430  00000-0  00000-0 0  9991
2 13075  63.1230  95.9865 7109593 277.5368  13.6781  1.98085509320878

Verfolge SL-6 R/B(2) in Echtzeit mit AllMySat

Download on the App Store